Weather History for KCLL - January, 2013

Change the Weather History Date:

Friday, January 11, 2013

  Actual Average Record
Temperature  
Mean Temperature 61 °F 51 °F  
Max Temperature 75 °F 61 °F 81 °F (1911)
Min Temperature 46 °F 41 °F 9 °F (1982)
Degree Days  
Heating Degree Days 4 15  
Month to date heating degree days 171 165  
Since 1 July heating degree days 655 801  
Cooling Degree Days 0 0  
Month to date cooling degree days 0 0  
Year to date cooling degree days 0 0  
Growing Degree Days 10 (Base 50)    
Moisture  
Dew Point 56 °F    
Average Humidity 76    
Maximum Humidity 93    
Minimum Humidity 59    
Precipitation  
Precipitation 0.00 in 0.10 in 2.31 in (1932)
Month to date precipitation 4.80 1.12  
Year to date precipitation 4.80 1.12  
Sea Level Pressure  
Sea Level Pressure 29.91 in    
Wind  
Wind Speed 9 mph (South)    
Max Wind Speed 21 mph    
Max Gust Speed 26 mph    
Visibility 9 miles    
Events      
T = Trace of Precipitation, MM = Missing Value Source: NWS Daily Summary

Daily Weather History Graph

Daily Weather History Graph

Search for Another Location

Airport or City:

Trip Planner

Search our weather history database for the weather conditions in past years. The results will help you decide how hot, cold, wet, or windy it might be!

Date:

Astronomy

Jan. 11, 2013 Rise Set
Actual Time 7:23 AM CST 5:43 PM CST
Civil Twilight 6:57 AM CST 6:09 PM CST
Nautical Twilight 6:27 AM CST 6:39 PM CST
Astronomical Twilight 5:58 AM CST 7:08 PM CST
Moon 7:00 AM CST (1/11) 5:58 PM CST (1/11)
Length of Visible Light 11h 12m
Length of Day
10h 19m
Waning Crescent, 0% of the Moon is Illuminated
Jan 11
Waning Crescent
Jan 11
New
Jan 18
First Quarter
Jan 26
Full
Feb 3
Last Quarter

Hourly Weather History & Observations

Time (CST) Temp. Windchill Dew Point Humidity Pressure Visibility Wind Dir Wind Speed Gust Speed Precip Events Conditions
12:53 AM 51.1 °F - 46.0 °F 83% 30.03 in 10.0 mi South 5.8 mph - N/A   Clear
1:53 AM 51.1 °F - 46.0 °F 83% 30.02 in 10.0 mi South 6.9 mph - N/A   Clear
2:53 AM 50.0 °F - 45.0 °F 83% 30.03 in 10.0 mi South 5.8 mph - N/A   Clear
3:53 AM 48.9 °F - 45.0 °F 86% 30.01 in 10.0 mi SSW 3.5 mph - N/A   Clear
4:53 AM 46.9 °F - 44.1 °F 90% 30.00 in 10.0 mi SSE 4.6 mph - N/A   Clear
5:53 AM 48.2 °F - 44.6 °F 87% 29.98 in 10.0 mi South 5.8 mph - N/A   Clear
6:53 AM 46.4 °F 43.5 °F 42.8 °F 87% 29.97 in 10.0 mi South 5.8 mph - N/A   Clear
7:53 AM 48.0 °F - 44.1 °F 86% 29.97 in 10.0 mi Calm Calm - N/A   Clear
8:53 AM 51.1 °F - 46.9 °F 86% 29.99 in 10.0 mi Calm Calm - N/A   Clear
9:53 AM 55.9 °F - 50.0 °F 80% 29.99 in 10.0 mi South 4.6 mph - N/A   Clear
10:53 AM 61.0 °F - 52.0 °F 72% 29.97 in 10.0 mi South 8.1 mph - N/A   Clear
11:53 AM 68.0 °F - 54.0 °F 61% 29.93 in 10.0 mi South 9.2 mph - N/A   Clear
12:53 PM 72.0 °F - 57.0 °F 59% 29.90 in 10.0 mi South 11.5 mph - N/A   Clear
1:53 PM 73.9 °F - 60.1 °F 62% 29.87 in 10.0 mi South 20.7 mph 25.3 mph N/A   Clear
2:53 PM 72.0 °F - 61.0 °F 68% 29.88 in 10.0 mi South 16.1 mph 26.5 mph N/A   Mostly Cloudy
3:30 PM 71.6 °F - 60.8 °F 69% 29.88 in 10.0 mi South 13.8 mph 21.9 mph N/A   Mostly Cloudy
3:53 PM 70.0 °F - 61.0 °F 73% 29.88 in 10.0 mi South 10.4 mph 19.6 mph N/A   Overcast
4:53 PM 68.0 °F - 62.1 °F 81% 29.84 in 10.0 mi South 13.8 mph - N/A   Overcast
5:11 PM 68.0 °F - 62.6 °F 83% 29.85 in 10.0 mi South 8.1 mph - N/A   Overcast
5:26 PM 68.0 °F - 62.6 °F 83% 29.86 in 10.0 mi South 6.9 mph - N/A   Overcast
5:53 PM 68.0 °F - 62.1 °F 81% 29.84 in 10.0 mi SSE 8.1 mph - N/A   Overcast
6:53 PM 68.0 °F - 63.0 °F 84% 29.86 in 10.0 mi SSE 15.0 mph - N/A   Overcast
7:07 PM 68.0 °F - 62.6 °F 83% 29.87 in 10.0 mi SSE 13.8 mph - N/A   Overcast
7:45 PM 66.2 °F - 62.6 °F 88% 29.87 in 10.0 mi SSE 12.7 mph - N/A   Overcast
7:53 PM 66.0 °F - 63.0 °F 90% 29.86 in 10.0 mi SSE 13.8 mph - N/A   Overcast
8:53 PM 66.0 °F - 63.0 °F 90% 29.87 in 10.0 mi SSE 11.5 mph - N/A   Overcast
9:53 PM 66.0 °F - 64.0 °F 93% 29.87 in 9.0 mi SSE 12.7 mph - 0.00 in   Overcast
10:29 PM 66.2 °F - 64.4 °F 94% 29.87 in 7.0 mi SSE 12.7 mph - N/A   Overcast
10:53 PM 66.0 °F - 64.9 °F 96% 29.87 in 6.0 mi SSE 10.4 mph - N/A   Overcast
11:37 PM 66.2 °F - 64.4 °F 94% 29.86 in 2.5 mi SSE 11.5 mph - N/A   Overcast
11:53 PM 66.0 °F - 64.9 °F 96% 29.86 in 2.0 mi SSE 11.5 mph - N/A   Overcast